Torna al catalogo

MACSAT 1

M 1

AttivoMilitarePO
NORAD 20607·PAYLOAD·🇺🇸 United States

Lanciato May 9, 1990 da Vandenberg Space Force Base

Loading…

Prossimi Passaggi (prossime 24 ore)

TLE

AggiornatoSource: Space-Track

Epoca: Sep 14, 2026, 10:12 UTC

1 20607U 90043A   26257.42511043  .00000577  00000-0  77184-4 0  9993
2 20607  89.7511 241.5676 0091037  42.4114 318.4095 14.75249967927535

Traccia MACSAT 1 in tempo reale con AllMySat

Download on the App Store